Home > Time Zones > World Clock > Weather > Germany > Ulm > Past weeks

Flag for Germany Weather past 2 weeks in Ulm, Baden-Württemberg, Germany

Now
46 °F

Light rain. Broken clouds.


Feels Like: 41 °F
Forecast: 44 / 49 °F
Wind: 10 mph from Southwest

Location: Laupheim Airport

Current Time: Dec 18, 2014 at 4:27:04 PM

Latest Report: Dec 18, 2014 at 3:20 PM


Visibility: 5 mi

Pressure: 30.04 "Hg

Humidity: 93%

Dew point: 45 °F

Location of UlmLocation

Historic Weather in Ulm — Graph

°F

Ulm temperature yesterday

Maximum temperature yesterday: 41 °F (at 11:20 AM)
Minimum temperature yesterday: 36 °F (at 7:20 AM)
Average temperature yesterday: 38 °F

Past Weeks' High & Low Weather Summary

 TemperatureHumidityPressure
High48 °F (Dec 13, 1:20 PM)100% (Dec 3, 6:20 PM)30.39 "Hg (Dec 3, 6:20 PM)
Low30 °F (Dec 9, 6:20 AM)57% (Dec 12, 1:20 PM)29.77 "Hg (Dec 12, 8:20 PM)
Average38 °F89%30.03 "Hg
* Reported Dec 3 3:20 PM — Dec 18 3:20 PM, Ulm, Weather by CustomWeather, © 2014

Note: Actual official high and low records may vary slightly from our data, if they occured in-between our weather recording intervals... More about our weather records

Advertising

Ulm weather history for previous 24 hours

 ConditionsComfort  
Time TempWeatherWind HumidityBarometerVisibility
3:20 PM
Dec 18
46 °FLight rain. Broken clouds.10 mph93%30.04 "Hg5 mi
2:20 PM46 °FLight rain. Partly sunny.13 mph93%30.04 "Hg5 mi
1:20 PM45 °FLight rain. Partly sunny.13 mph100%30.04 "HgN/A
12:20 PM46 °FPartly sunny.15 mph87%30.04 "HgN/A
11:20 AM45 °FPartly sunny.12 mph93%30.04 "HgN/A
10:20 AM45 °FPartly sunny.13 mph87%30.04 "HgN/A
9:20 AM43 °FBroken clouds.10 mph93%30.04 "HgN/A
8:20 AM43 °FPartly sunny.9 mph93%30.04 "HgN/A
7:20 AM43 °FMostly cloudy.10 mph93%30.04 "HgN/A
6:20 AM43 °FLow clouds.10 mph93%30.04 "HgN/A
5:20 AM43 °FLow clouds.10 mph93%30.04 "HgN/A
4:20 AM41 °FLow clouds.13 mph93%30.01 "HgN/A
3:20 AM41 °FLow clouds.13 mph93%30.01 "HgN/A
2:20 AM41 °FLow clouds.14 mph93%30.01 "HgN/A
1:20 AM41 °FLow clouds.13 mph93%30.01 "HgN/A
12:20 AM41 °FPassing clouds.13 mph93%29.98 "HgN/A
11:20 PM
Dec 17
41 °FLow clouds.13 mph87%29.98 "HgN/A
10:20 PM39 °FLow clouds.13 mph93%29.95 "HgN/A
9:20 PM39 °FPassing clouds.13 mph93%29.92 "HgN/A
8:20 PM39 °FPassing clouds.13 mph93%29.89 "HgN/A
7:20 PM37 °FPassing clouds.10 mph100%29.89 "Hg4 mi
6:20 PM37 °FLight rain. Passing clouds.14 mph93%29.86 "HgN/A
5:20 PM37 °FRain. Partly cloudy.16 mph93%29.83 "HgN/A
5:00 PM37 °FRain. Partly cloudy.16 mph93%29.83 "Hg6 mi
4:20 PM37 °FRain. Broken clouds.18 mph93%29.80 "Hg6 mi
Weather by CustomWeather, © 2014

See weather overviewHow to use our weather pages